Location: New Plymouth
(39.0670°S, 174.0830°E)
Time: 05:54:23
(UTC+13:00)

Lacrosse 5 - Pass Details

Date: 24 January 2019
Orbit: 713 x 725 km, 57.0° (Epoch: 17 February)

Event Time Altitude Azimuth Distance (km) Brightness Sun altitude
Rises 22:52:24 0° 237° (WSW) 3,164 6.6 -20.3°
Reaches altitude 10° 22:55:18 10° 252° (WSW) 2,233 5.2 -20.7°
Maximum altitude 22:59:06 21° 300° (WNW) 1,598 3.7 -21.2°
Enters shadow 23:01:11 17° 331° (NNW) 1,804 3.7 -21.4°
